Year,Month,Day,Hour,Minute,Value (Times are PST for windspeed in km/hr)
2012,03,12,00,00,12.60
2012,03,12,00,01,11.20
2012,03,12,00,02,7.00
2012,03,12,00,03,4.90
2012,03,12,00,04,7.30
2012,03,12,00,05,5.10
2012,03,12,00,06,4.30
2012,03,12,00,07,9.70
2012,03,12,00,08,5.70
2012,03,12,00,09,3.90
2012,03,12,00,10,4.50
2012,03,12,00,11,4.50
2012,03,12,00,12,7.20
2012,03,12,00,13,6.30
2012,03,12,00,14,5.70
2012,03,12,00,15,11.00
2012,03,12,00,16,8.00
2012,03,12,00,17,7.40
2012,03,12,00,18,6.50
2012,03,12,00,19,8.30
2012,03,12,00,20,5.90
2012,03,12,00,21,5.70
2012,03,12,00,22,8.20
2012,03,12,00,23,5.20
2012,03,12,00,24,5.70
2012,03,12,00,25,5.90
2012,03,12,00,26,7.10
2012,03,12,00,27,4.70
2012,03,12,00,28,9.60
2012,03,12,00,29,11.70
2012,03,12,00,30,10.70
2012,03,12,00,31,6.70
2012,03,12,00,32,7.10
2012,03,12,00,33,6.10
2012,03,12,00,34,11.70
2012,03,12,00,35,9.40
2012,03,12,00,36,10.10
2012,03,12,00,37,9.70
2012,03,12,00,38,5.60
2012,03,12,00,39,7.20
2012,03,12,00,40,5.30
2012,03,12,00,41,9.70
2012,03,12,00,42,5.80
2012,03,12,00,43,10.90
2012,03,12,00,44,10.60
2012,03,12,00,45,15.40
2012,03,12,00,46,9.70
2012,03,12,00,47,8.00
2012,03,12,00,48,8.20
2012,03,12,00,49,10.10
2012,03,12,00,50,9.90
2012,03,12,00,51,9.20
2012,03,12,00,52,5.10
2012,03,12,00,53,7.50
2012,03,12,00,54,9.40
2012,03,12,00,55,7.80
2012,03,12,00,56,11.60
2012,03,12,00,57,12.50
2012,03,12,00,58,16.80
2012,03,12,00,59,15.20
2012,03,12,01,00,12.90
2012,03,12,01,01,9.70
2012,03,12,01,02,8.90
2012,03,12,01,03,14.90
2012,03,12,01,04,10.40
2012,03,12,01,05,7.60
2012,03,12,01,06,6.10
2012,03,12,01,07,6.00
2012,03,12,01,08,6.30
2012,03,12,01,09,6.10
2012,03,12,01,10,10.00
2012,03,12,01,11,6.60
2012,03,12,01,12,2.30
2012,03,12,01,13,9.00
2012,03,12,01,14,8.70
2012,03,12,01,15,9.70
2012,03,12,01,16,7.90
2012,03,12,01,17,8.20
2012,03,12,01,18,9.30
2012,03,12,01,19,10.30
2012,03,12,01,20,10.90
2012,03,12,01,21,9.60
2012,03,12,01,22,11.60
2012,03,12,01,23,8.30
2012,03,12,01,24,10.10
2012,03,12,01,25,8.00
2012,03,12,01,26,13.80
2012,03,12,01,27,8.60
2012,03,12,01,28,4.40
2012,03,12,01,29,12.90
2012,03,12,01,30,7.90
2012,03,12,01,31,9.70
2012,03,12,01,32,7.90
2012,03,12,01,33,13.40
2012,03,12,01,34,6.40
2012,03,12,01,35,10.30
2012,03,12,01,36,6.90
2012,03,12,01,37,9.70
2012,03,12,01,38,9.20
2012,03,12,01,39,8.40
2012,03,12,01,40,8.30
2012,03,12,01,41,5.10
2012,03,12,01,42,4.80
2012,03,12,01,43,5.00
2012,03,12,01,44,12.00
2012,03,12,01,45,4.80
2012,03,12,01,46,8.10
2012,03,12,01,47,5.40
2012,03,12,01,48,10.40
2012,03,12,01,49,7.60
2012,03,12,01,50,6.00
2012,03,12,01,51,5.10
2012,03,12,01,52,10.60
2012,03,12,01,53,12.10
2012,03,12,01,54,7.20
2012,03,12,01,55,6.70
2012,03,12,01,56,13.40
2012,03,12,01,57,10.40
2012,03,12,01,58,13.40
2012,03,12,01,59,10.20
2012,03,12,02,00,7.70
2012,03,12,02,01,10.00
2012,03,12,02,02,15.00
2012,03,12,02,03,16.10
2012,03,12,02,04,14.50
2012,03,12,02,05,16.60
2012,03,12,02,06,17.20
2012,03,12,02,07,11.70
2012,03,12,02,08,12.30
2012,03,12,02,09,15.50
2012,03,12,02,10,15.30
2012,03,12,02,11,22.90
2012,03,12,02,12,15.20
2012,03,12,02,13,12.40
2012,03,12,02,14,11.30
2012,03,12,02,15,8.20
2012,03,12,02,16,13.60
2012,03,12,02,17,17.70
2012,03,12,02,18,10.30
2012,03,12,02,19,13.60
2012,03,12,02,20,14.00
2012,03,12,02,21,13.00
2012,03,12,02,22,10.30
2012,03,12,02,23,8.80
2012,03,12,02,24,14.10
2012,03,12,02,25,18.50
2012,03,12,02,26,12.80
2012,03,12,02,27,12.70
2012,03,12,02,28,10.90
2012,03,12,02,29,10.30
2012,03,12,02,30,17.80
2012,03,12,02,31,11.60
2012,03,12,02,32,14.30
2012,03,12,02,33,17.00
2012,03,12,02,34,12.00
2012,03,12,02,35,23.00
2012,03,12,02,36,18.00
2012,03,12,02,37,17.90
2012,03,12,02,38,10.90
2012,03,12,02,39,17.40
2012,03,12,02,40,17.80
2012,03,12,02,41,16.90
2012,03,12,02,42,18.30
2012,03,12,02,43,11.00
2012,03,12,02,44,18.40
2012,03,12,02,45,11.80
2012,03,12,02,46,14.60
2012,03,12,02,47,15.40
2012,03,12,02,48,10.50
2012,03,12,02,49,8.40
2012,03,12,02,50,5.80
2012,03,12,02,51,13.90
2012,03,12,02,52,17.80
2012,03,12,02,53,12.60
2012,03,12,02,54,13.50
2012,03,12,02,55,9.60
2012,03,12,02,56,10.80
2012,03,12,02,57,14.10
2012,03,12,02,58,13.30
2012,03,12,02,59,17.80
2012,03,12,03,00,16.00
2012,03,12,03,01,8.70
2012,03,12,03,02,22.00
2012,03,12,03,03,14.60
2012,03,12,03,04,20.70
2012,03,12,03,05,20.50
2012,03,12,03,06,16.10
2012,03,12,03,07,22.40
2012,03,12,03,08,11.30
2012,03,12,03,09,16.80
2012,03,12,03,10,12.60
2012,03,12,03,11,13.00
2012,03,12,03,12,18.90
2012,03,12,03,13,11.10
2012,03,12,03,14,14.80
2012,03,12,03,15,16.30
2012,03,12,03,16,8.00
2012,03,12,03,17,21.70
2012,03,12,03,18,18.80
2012,03,12,03,19,18.70
2012,03,12,03,20,19.00
2012,03,12,03,21,21.10
2012,03,12,03,22,20.00
2012,03,12,03,23,18.90
2012,03,12,03,24,16.30
2012,03,12,03,25,19.70
2012,03,12,03,26,22.30
2012,03,12,03,27,18.30
2012,03,12,03,28,18.30
2012,03,12,03,29,22.30
2012,03,12,03,30,14.70
2012,03,12,03,31,20.10
2012,03,12,03,32,26.20
2012,03,12,03,33,23.50
2012,03,12,03,34,22.90
2012,03,12,03,35,15.10
2012,03,12,03,36,14.20
2012,03,12,03,37,18.70
2012,03,12,03,38,13.50
2012,03,12,03,39,16.60
2012,03,12,03,40,17.20
2012,03,12,03,41,21.00
2012,03,12,03,42,11.60
2012,03,12,03,43,12.10
2012,03,12,03,44,24.40
2012,03,12,03,45,20.50
2012,03,12,03,46,12.20
2012,03,12,03,47,15.10
2012,03,12,03,48,20.30
2012,03,12,03,49,18.80
2012,03,12,03,50,21.70
2012,03,12,03,51,24.50
2012,03,12,03,52,14.60
2012,03,12,03,53,9.20
2012,03,12,03,54,17.30
2012,03,12,03,55,15.20
2012,03,12,03,56,18.70
2012,03,12,03,57,21.00
2012,03,12,03,58,18.50
2012,03,12,03,59,20.20
2012,03,12,04,00,23.60
2012,03,12,04,01,24.20
2012,03,12,04,02,18.20
2012,03,12,04,03,23.60
2012,03,12,04,04,22.50
2012,03,12,04,05,22.90
2012,03,12,04,06,14.10
2012,03,12,04,07,22.60
2012,03,12,04,08,13.90
2012,03,12,04,09,12.80
2012,03,12,04,10,13.90
2012,03,12,04,11,18.10
2012,03,12,04,12,19.80
2012,03,12,04,13,19.50
2012,03,12,04,14,20.50
2012,03,12,04,15,18.00
2012,03,12,04,16,24.70
2012,03,12,04,17,19.20
2012,03,12,04,18,17.50
2012,03,12,04,19,16.70
2012,03,12,04,20,15.50
2012,03,12,04,21,18.80
2012,03,12,04,22,30.60
2012,03,12,04,23,28.10
2012,03,12,04,24,18.80
2012,03,12,04,25,25.30
2012,03,12,04,26,21.10
2012,03,12,04,27,23.10
2012,03,12,04,28,13.80
2012,03,12,04,29,13.60
2012,03,12,04,30,18.10
2012,03,12,04,31,22.40
2012,03,12,04,32,17.90
2012,03,12,04,33,30.40
2012,03,12,04,34,24.40
2012,03,12,04,35,23.40
2012,03,12,04,36,21.20
2012,03,12,04,37,25.90
2012,03,12,04,38,31.90
2012,03,12,04,39,19.90
2012,03,12,04,40,29.70
2012,03,12,04,41,21.40
2012,03,12,04,42,24.50
2012,03,12,04,43,23.30
2012,03,12,04,44,24.90
2012,03,12,04,45,21.40
2012,03,12,04,46,22.40
2012,03,12,04,47,20.70
2012,03,12,04,48,20.30
2012,03,12,04,49,24.70
2012,03,12,04,50,22.20
2012,03,12,04,51,16.30
2012,03,12,04,52,23.80
2012,03,12,04,53,21.70
2012,03,12,04,54,26.80
2012,03,12,04,55,28.90
2012,03,12,04,56,26.90
2012,03,12,04,57,15.50
2012,03,12,04,58,27.40
2012,03,12,04,59,21.60
2012,03,12,05,00,17.90
2012,03,12,05,01,22.60
2012,03,12,05,02,23.30
2012,03,12,05,03,21.20
2012,03,12,05,04,28.70
2012,03,12,05,05,23.30
2012,03,12,05,06,28.70
2012,03,12,05,07,30.30
2012,03,12,05,08,14.90
2012,03,12,05,09,14.50
2012,03,12,05,10,20.60
2012,03,12,05,11,18.40
2012,03,12,05,12,22.40
2012,03,12,05,13,20.50
2012,03,12,05,14,19.10
2012,03,12,05,15,15.00
2012,03,12,05,16,21.90
2012,03,12,05,17,18.50
2012,03,12,05,18,20.00
2012,03,12,05,19,20.30
2012,03,12,05,20,16.20
2012,03,12,05,21,27.00
2012,03,12,05,22,27.70
2012,03,12,05,23,26.10
2012,03,12,05,24,13.00
2012,03,12,05,25,16.50
2012,03,12,05,26,18.50
2012,03,12,05,27,18.00
2012,03,12,05,28,22.00
2012,03,12,05,29,23.60
2012,03,12,05,30,22.10
2012,03,12,05,31,26.50
2012,03,12,05,32,21.90
2012,03,12,05,33,22.70
2012,03,12,05,34,30.80
2012,03,12,05,35,18.20
2012,03,12,05,36,16.40
2012,03,12,05,37,23.20
2012,03,12,05,38,16.90
2012,03,12,05,39,25.20
2012,03,12,05,40,28.30
2012,03,12,05,41,22.80
2012,03,12,05,42,16.40
2012,03,12,05,43,16.80
2012,03,12,05,44,17.50
2012,03,12,05,45,22.00
2012,03,12,05,46,16.00
2012,03,12,05,47,24.50
2012,03,12,05,48,22.90
2012,03,12,05,49,18.80
2012,03,12,05,50,21.50
2012,03,12,05,51,31.00
2012,03,12,05,52,32.80
2012,03,12,05,53,24.30
2012,03,12,05,54,23.80
2012,03,12,05,55,21.60
2012,03,12,05,56,30.30
2012,03,12,05,57,22.40
2012,03,12,05,58,23.10
2012,03,12,05,59,34.50
2012,03,12,06,00,19.80
2012,03,12,06,01,22.20
2012,03,12,06,02,26.60
2012,03,12,06,03,22.90
2012,03,12,06,04,24.10
2012,03,12,06,05,25.30
2012,03,12,06,06,22.10
2012,03,12,06,07,29.90
2012,03,12,06,08,26.60
2012,03,12,06,09,23.40
2012,03,12,06,10,24.50
2012,03,12,06,11,23.00
2012,03,12,06,12,15.00
2012,03,12,06,13,18.90
2012,03,12,06,14,27.10
2012,03,12,06,15,28.80
2012,03,12,06,16,20.80
2012,03,12,06,17,18.90
2012,03,12,06,18,26.40
2012,03,12,06,19,25.60
2012,03,12,06,20,25.90
2012,03,12,06,21,21.20
2012,03,12,06,22,12.00
2012,03,12,06,23,15.20
2012,03,12,06,24,29.80
2012,03,12,06,25,20.50
2012,03,12,06,26,22.50
2012,03,12,06,27,28.60
2012,03,12,06,28,23.00
2012,03,12,06,29,26.70
2012,03,12,06,30,23.00
2012,03,12,06,31,21.10
2012,03,12,06,32,22.40
2012,03,12,06,33,20.80
2012,03,12,06,34,25.00
2012,03,12,06,35,26.40
2012,03,12,06,36,25.80
2012,03,12,06,37,31.20
2012,03,12,06,38,17.50
2012,03,12,06,39,26.30
2012,03,12,06,40,19.60
2012,03,12,06,41,21.50
2012,03,12,06,42,21.70
2012,03,12,06,43,29.30
2012,03,12,06,44,19.30
2012,03,12,06,45,20.20
2012,03,12,06,46,22.50
2012,03,12,06,47,23.30
2012,03,12,06,48,29.90
2012,03,12,06,49,30.10
2012,03,12,06,50,21.70
2012,03,12,06,51,19.00
2012,03,12,06,52,21.00
2012,03,12,06,53,34.20
2012,03,12,06,54,21.20
2012,03,12,06,55,37.70
2012,03,12,06,56,27.90
2012,03,12,06,57,29.00
2012,03,12,06,58,18.00
2012,03,12,06,59,25.40
2012,03,12,07,00,24.20
2012,03,12,07,01,25.00
2012,03,12,07,02,20.10
2012,03,12,07,03,16.00
2012,03,12,07,04,25.40
2012,03,12,07,05,31.60
2012,03,12,07,06,25.20
2012,03,12,07,07,19.40
2012,03,12,07,08,26.10
2012,03,12,07,09,28.00
2012,03,12,07,10,25.30
2012,03,12,07,11,24.50
2012,03,12,07,12,32.30
2012,03,12,07,13,17.60
2012,03,12,07,14,21.10
2012,03,12,07,15,24.40
2012,03,12,07,16,26.50
2012,03,12,07,17,21.80
2012,03,12,07,18,17.50
2012,03,12,07,19,20.10
2012,03,12,07,20,26.40
2012,03,12,07,21,26.40
2012,03,12,07,22,15.30
2012,03,12,07,23,19.90
2012,03,12,07,24,23.10
2012,03,12,07,25,24.60
2012,03,12,07,26,28.00
2012,03,12,07,27,30.10
2012,03,12,07,28,20.90
2012,03,12,07,29,18.20
2012,03,12,07,30,22.60
2012,03,12,07,31,34.10
2012,03,12,07,32,26.50
2012,03,12,07,33,31.30
2012,03,12,07,34,26.10
2012,03,12,07,35,29.70
2012,03,12,07,36,18.30
2012,03,12,07,37,11.30
2012,03,12,07,38,23.30
2012,03,12,07,39,19.40
2012,03,12,07,40,26.60
2012,03,12,07,41,26.80
2012,03,12,07,42,22.30
2012,03,12,07,43,25.30
2012,03,12,07,44,19.70
2012,03,12,07,45,29.50
2012,03,12,07,46,19.60
2012,03,12,07,47,17.10
2012,03,12,07,48,23.70
2012,03,12,07,49,22.70
2012,03,12,07,50,21.50
2012,03,12,07,51,24.10
2012,03,12,07,52,22.90
2012,03,12,07,53,27.60
2012,03,12,07,54,29.70
2012,03,12,07,55,30.70
2012,03,12,07,56,22.30
2012,03,12,07,57,20.00
2012,03,12,07,58,16.50
2012,03,12,07,59,25.90
2012,03,12,08,00,31.40
2012,03,12,08,01,21.20
2012,03,12,08,02,26.30
2012,03,12,08,03,34.40
2012,03,12,08,04,25.70
2012,03,12,08,05,24.30
2012,03,12,08,06,30.40
2012,03,12,08,07,26.70
2012,03,12,08,08,30.30
2012,03,12,08,09,34.70
2012,03,12,08,10,18.60
2012,03,12,08,11,22.40
2012,03,12,08,12,23.50
2012,03,12,08,13,26.30
2012,03,12,08,14,31.30
2012,03,12,08,15,23.30
2012,03,12,08,16,18.90
2012,03,12,08,17,29.10
2012,03,12,08,18,31.20
2012,03,12,08,19,17.60
2012,03,12,08,20,31.00
2012,03,12,08,21,27.50
2012,03,12,08,22,33.10
2012,03,12,08,23,32.00
2012,03,12,08,24,22.50
2012,03,12,08,25,27.40
2012,03,12,08,26,30.90
2012,03,12,08,27,28.90
2012,03,12,08,28,22.30
2012,03,12,08,29,24.50
2012,03,12,08,30,27.80
2012,03,12,08,31,22.40
2012,03,12,08,32,26.60
2012,03,12,08,33,22.90
2012,03,12,08,34,24.90
2012,03,12,08,35,24.70
2012,03,12,08,36,19.20
2012,03,12,08,37,17.00
2012,03,12,08,38,29.10
2012,03,12,08,39,29.40
2012,03,12,08,40,22.60
2012,03,12,08,41,17.50
2012,03,12,08,42,28.20
2012,03,12,08,43,27.20
2012,03,12,08,44,22.00
2012,03,12,08,45,27.40
2012,03,12,08,46,22.00
2012,03,12,08,47,18.70
2012,03,12,08,48,19.90
2012,03,12,08,49,23.80
2012,03,12,08,50,23.00
2012,03,12,08,51,17.20
2012,03,12,08,52,25.80
2012,03,12,08,53,33.20
2012,03,12,08,54,21.20
2012,03,12,08,55,37.70
2012,03,12,08,56,29.30
2012,03,12,08,57,20.80
2012,03,12,08,58,28.40
2012,03,12,08,59,21.70
2012,03,12,09,00,27.70
2012,03,12,09,01,19.20
2012,03,12,09,02,27.70
2012,03,12,09,03,34.50
2012,03,12,09,04,25.40
2012,03,12,09,05,26.00
2012,03,12,09,06,26.40
2012,03,12,09,07,34.60
2012,03,12,09,08,22.20
2012,03,12,09,09,15.80
2012,03,12,09,10,24.50
2012,03,12,09,11,34.90
2012,03,12,09,12,33.60
2012,03,12,09,13,27.90
2012,03,12,09,14,25.30
2012,03,12,09,15,26.40
2012,03,12,09,16,18.70
2012,03,12,09,17,31.80
2012,03,12,09,18,30.70
2012,03,12,09,19,21.60
2012,03,12,09,20,25.00
2012,03,12,09,21,22.30
2012,03,12,09,22,21.60
2012,03,12,09,23,27.80
2012,03,12,09,24,23.80
2012,03,12,09,25,27.70
2012,03,12,09,26,24.60
2012,03,12,09,27,29.00
2012,03,12,09,28,24.80
2012,03,12,09,29,9.00
2012,03,12,09,30,19.10
2012,03,12,09,31,23.00
2012,03,12,09,32,19.20
2012,03,12,09,33,23.20
2012,03,12,09,34,31.50
2012,03,12,09,35,23.90
2012,03,12,09,36,19.50
2012,03,12,09,37,28.90
2012,03,12,09,38,17.60
2012,03,12,09,39,21.50
2012,03,12,09,40,20.90
2012,03,12,09,41,21.20
2012,03,12,09,42,16.20
2012,03,12,09,43,24.30
2012,03,12,09,44,17.90
2012,03,12,09,45,22.50
2012,03,12,09,46,17.90
2012,03,12,09,47,21.20
2012,03,12,09,48,26.40
2012,03,12,09,49,21.20
2012,03,12,09,50,25.50
2012,03,12,09,51,31.20
2012,03,12,09,52,18.80
2012,03,12,09,53,17.10
2012,03,12,09,54,20.80
2012,03,12,09,55,24.00
2012,03,12,09,56,20.40
2012,03,12,09,57,18.30
2012,03,12,09,58,21.80
2012,03,12,09,59,27.40
2012,03,12,10,00,16.00
2012,03,12,10,01,18.60
2012,03,12,10,02,23.20
2012,03,12,10,03,27.10
2012,03,12,10,04,21.10
2012,03,12,10,05,25.70
2012,03,12,10,06,13.70
2012,03,12,10,07,12.30
2012,03,12,10,08,19.50
2012,03,12,10,09,16.50
2012,03,12,10,10,13.80
2012,03,12,10,11,13.10
2012,03,12,10,12,26.00
2012,03,12,10,13,24.20
2012,03,12,10,14,18.30
2012,03,12,10,15,10.60
2012,03,12,10,16,9.50
2012,03,12,10,17,24.50
2012,03,12,10,18,10.90
2012,03,12,10,19,9.30
2012,03,12,10,20,7.60
2012,03,12,10,21,7.30
2012,03,12,10,22,8.60
2012,03,12,10,23,10.50
2012,03,12,10,24,14.30
2012,03,12,10,25,18.20
2012,03,12,10,26,20.80
2012,03,12,10,27,16.90
2012,03,12,10,28,12.70
2012,03,12,10,29,13.50
2012,03,12,10,30,11.00
2012,03,12,10,31,21.80
2012,03,12,10,32,17.60
2012,03,12,10,33,12.20
2012,03,12,10,34,10.40
2012,03,12,10,35,13.80
2012,03,12,10,36,12.60
2012,03,12,10,37,13.80
2012,03,12,10,38,7.90
2012,03,12,10,39,10.70
2012,03,12,10,40,14.70
2012,03,12,10,41,15.90
2012,03,12,10,42,11.80
2012,03,12,10,43,9.50
2012,03,12,10,44,11.50
2012,03,12,10,45,16.50
2012,03,12,10,46,15.40
2012,03,12,10,47,11.10
2012,03,12,10,48,15.00
2012,03,12,10,49,8.70
2012,03,12,10,50,11.20
2012,03,12,10,51,9.70
2012,03,12,10,52,15.40
2012,03,12,10,53,13.70
2012,03,12,10,54,14.60
2012,03,12,10,55,8.20
2012,03,12,10,56,7.30
2012,03,12,10,57,8.70
2012,03,12,10,58,7.70
2012,03,12,10,59,9.30
2012,03,12,11,00,7.10
2012,03,12,11,01,9.40
2012,03,12,11,02,12.10
2012,03,12,11,03,12.10
2012,03,12,11,04,6.20
2012,03,12,11,05,11.30
2012,03,12,11,06,13.50
2012,03,12,11,07,6.40
2012,03,12,11,08,5.40
2012,03,12,11,09,6.70
2012,03,12,11,10,14.40
2012,03,12,11,11,10.40
2012,03,12,11,12,10.60
2012,03,12,11,13,9.00
2012,03,12,11,14,12.60
2012,03,12,11,15,14.30
2012,03,12,11,16,10.50
2012,03,12,11,17,7.70
2012,03,12,11,18,4.30
2012,03,12,11,19,5.10
2012,03,12,11,20,6.10
2012,03,12,11,21,3.90
2012,03,12,11,22,11.90
2012,03,12,11,23,8.40
2012,03,12,11,24,9.60
2012,03,12,11,25,8.20
2012,03,12,11,26,11.10
2012,03,12,11,27,10.00
2012,03,12,11,28,7.00
2012,03,12,11,29,12.70
2012,03,12,11,30,12.60
2012,03,12,11,31,9.00
2012,03,12,11,32,9.90
2012,03,12,11,33,6.80
2012,03,12,11,34,5.50
2012,03,12,11,35,7.80
2012,03,12,11,36,11.60
2012,03,12,11,37,12.00
2012,03,12,11,38,5.10
2012,03,12,11,39,8.50
2012,03,12,11,40,5.60
2012,03,12,11,41,11.40
2012,03,12,11,42,13.40
2012,03,12,11,43,8.20
2012,03,12,11,44,9.90
2012,03,12,11,45,7.60
2012,03,12,11,46,7.40
2012,03,12,11,47,7.80
2012,03,12,11,48,7.20
2012,03,12,11,49,10.90
2012,03,12,11,50,3.90
2012,03,12,11,51,5.70
2012,03,12,11,52,4.10
2012,03,12,11,53,6.00
2012,03,12,11,54,5.40
2012,03,12,11,55,2.30
2012,03,12,11,56,5.70
2012,03,12,11,57,4.90
2012,03,12,11,58,3.50
2012,03,12,11,59,6.40
2012,03,12,12,00,5.50
2012,03,12,12,01,5.00
2012,03,12,12,02,5.10
2012,03,12,12,03,4.70
2012,03,12,12,04,5.70
2012,03,12,12,05,4.70
2012,03,12,12,06,5.30
2012,03,12,12,07,5.00
2012,03,12,12,08,4.40
2012,03,12,12,09,3.00
2012,03,12,12,10,3.70
2012,03,12,12,11,5.10
2012,03,12,12,12,7.90
2012,03,12,12,13,3.70
2012,03,12,12,14,3.20
2012,03,12,12,15,1.60
2012,03,12,12,16,6.40
2012,03,12,12,17,4.20
2012,03,12,12,18,2.80
2012,03,12,12,19,2.90
2012,03,12,12,20,2.60
2012,03,12,12,21,1.60
2012,03,12,12,22,3.60
2012,03,12,12,23,3.20
2012,03,12,12,24,3.10
2012,03,12,12,25,6.00
2012,03,12,12,26,3.70
2012,03,12,12,27,1.90
2012,03,12,12,28,1.90
2012,03,12,12,29,6.10
2012,03,12,12,30,5.20
2012,03,12,12,31,1.60
2012,03,12,12,32,5.80
2012,03,12,12,33,2.50
2012,03,12,12,34,2.70
2012,03,12,12,35,2.40
2012,03,12,12,36,5.00
2012,03,12,12,37,2.80
2012,03,12,12,38,2.30
2012,03,12,12,39,3.20
2012,03,12,12,40,4.20
2012,03,12,12,41,4.30
2012,03,12,12,42,6.40
2012,03,12,12,43,4.50
2012,03,12,12,44,2.40
2012,03,12,12,45,2.00
2012,03,12,12,46,0.90
2012,03,12,12,47,2.50
2012,03,12,12,48,2.80
2012,03,12,12,49,2.10
2012,03,12,12,50,0.80
2012,03,12,12,51,2.90
2012,03,12,12,52,2.70
2012,03,12,12,53,0.80
2012,03,12,12,54,1.00
2012,03,12,12,55,1.90
2012,03,12,12,56,2.50
2012,03,12,12,57,1.70
2012,03,12,12,58,2.60
2012,03,12,12,59,2.30
2012,03,12,13,00,1.60
2012,03,12,13,01,1.50
2012,03,12,13,02,3.20
2012,03,12,13,03,1.30
2012,03,12,13,04,0.00
2012,03,12,13,05,0.00
2012,03,12,13,06,1.90
2012,03,12,13,07,1.50
2012,03,12,13,08,0.20
2012,03,12,13,09,2.60
2012,03,12,13,10,0.20
2012,03,12,13,11,0.50
2012,03,12,13,12,0.00
2012,03,12,13,13,1.50
2012,03,12,13,14,0.80
2012,03,12,13,15,1.40
2012,03,12,13,16,0.70
2012,03,12,13,17,1.00
2012,03,12,13,18,1.60
2012,03,12,13,19,1.30
2012,03,12,13,20,2.90
2012,03,12,13,21,1.10
2012,03,12,13,22,3.90
2012,03,12,13,23,2.70
2012,03,12,13,24,0.30
2012,03,12,13,25,1.40
2012,03,12,13,26,0.90
2012,03,12,13,27,0.10
2012,03,12,13,28,0.00
2012,03,12,13,29,0.00
2012,03,12,13,30,0.00
2012,03,12,13,31,0.00
2012,03,12,13,32,0.00
2012,03,12,13,33,0.00
2012,03,12,13,34,0.00
2012,03,12,13,35,0.00
2012,03,12,13,36,0.00
2012,03,12,13,37,0.00
2012,03,12,13,38,0.00
2012,03,12,13,39,0.00
2012,03,12,13,40,0.20
2012,03,12,13,41,0.70
2012,03,12,13,42,0.50
2012,03,12,13,43,2.70
2012,03,12,13,44,0.00
2012,03,12,13,45,0.00
2012,03,12,13,46,1.20
2012,03,12,13,47,4.40
2012,03,12,13,48,0.20
2012,03,12,13,49,1.10
2012,03,12,13,50,2.20
2012,03,12,13,51,0.20
2012,03,12,13,52,0.00
2012,03,12,13,53,1.10
2012,03,12,13,54,1.60
2012,03,12,13,55,1.30
2012,03,12,13,56,0.00
2012,03,12,13,57,0.00
2012,03,12,13,58,0.00
2012,03,12,13,59,0.10
2012,03,12,14,00,0.10
2012,03,12,14,01,1.20
2012,03,12,14,02,0.00
2012,03,12,14,03,0.00
2012,03,12,14,04,2.10
2012,03,12,14,05,1.00
2012,03,12,14,06,0.30
2012,03,12,14,07,1.40
2012,03,12,14,08,1.20
2012,03,12,14,09,0.00
2012,03,12,14,10,0.70
2012,03,12,14,11,2.10
2012,03,12,14,12,1.60
2012,03,12,14,13,1.80
2012,03,12,14,14,0.70
2012,03,12,14,15,0.90
2012,03,12,14,16,0.00
2012,03,12,14,17,1.70
2012,03,12,14,18,2.70
2012,03,12,14,19,4.30
2012,03,12,14,20,0.00
2012,03,12,14,21,2.70
2012,03,12,14,22,5.00
2012,03,12,14,23,5.10
2012,03,12,14,24,1.00
2012,03,12,14,25,1.80
2012,03,12,14,26,4.50
2012,03,12,14,27,3.80
2012,03,12,14,28,5.00
2012,03,12,14,29,5.20
2012,03,12,14,30,5.00
2012,03,12,14,31,9.80
2012,03,12,14,32,4.60
2012,03,12,14,33,3.90
2012,03,12,14,34,4.10
2012,03,12,14,35,1.70
2012,03,12,14,36,2.20
2012,03,12,14,37,0.20
2012,03,12,14,38,0.30
2012,03,12,14,39,1.70
2012,03,12,14,40,0.10
2012,03,12,14,41,1.80
2012,03,12,14,42,3.10
2012,03,12,14,43,0.70
2012,03,12,14,44,2.20
2012,03,12,14,45,0.60
2012,03,12,14,46,1.10
2012,03,12,14,47,4.00
2012,03,12,14,48,0.50
2012,03,12,14,49,0.10
2012,03,12,14,50,1.00
2012,03,12,14,51,1.40
2012,03,12,14,52,3.10
2012,03,12,14,53,1.10
2012,03,12,14,54,0.50
2012,03,12,14,55,1.40
2012,03,12,14,56,0.00
2012,03,12,14,57,0.00
2012,03,12,14,58,0.00
2012,03,12,14,59,0.50
2012,03,12,15,00,2.90
2012,03,12,15,01,1.90
2012,03,12,15,02,0.40
2012,03,12,15,03,0.00
2012,03,12,15,04,0.00
2012,03,12,15,05,0.00
2012,03,12,15,06,0.00
2012,03,12,15,07,0.00
2012,03,12,15,08,0.00
2012,03,12,15,09,1.40
2012,03,12,15,10,0.50
2012,03,12,15,11,0.00
2012,03,12,15,12,1.10
2012,03,12,15,13,0.00
2012,03,12,15,14,0.00
2012,03,12,15,15,0.10
2012,03,12,15,16,0.00
2012,03,12,15,17,0.00
2012,03,12,15,18,0.00
2012,03,12,15,19,0.00
2012,03,12,15,20,0.00
2012,03,12,15,21,0.00
2012,03,12,15,22,1.90
2012,03,12,15,23,1.60
2012,03,12,15,24,0.70
2012,03,12,15,25,1.00
2012,03,12,15,26,1.30
2012,03,12,15,27,0.60
2012,03,12,15,28,0.10
2012,03,12,15,29,0.00
2012,03,12,15,30,0.00
2012,03,12,15,31,0.00
2012,03,12,15,32,0.00
2012,03,12,15,33,0.00
2012,03,12,15,34,0.00
2012,03,12,15,35,1.40
2012,03,12,15,36,3.30
2012,03,12,15,37,2.30
2012,03,12,15,38,0.00
2012,03,12,15,39,0.00
2012,03,12,15,40,0.00
2012,03,12,15,41,0.00
2012,03,12,15,42,0.00
2012,03,12,15,43,0.00
2012,03,12,15,44,0.00
2012,03,12,15,45,0.00
2012,03,12,15,46,0.00
2012,03,12,15,47,0.00
2012,03,12,15,48,0.00
2012,03,12,15,49,0.00
2012,03,12,15,50,0.00
2012,03,12,15,51,0.00
2012,03,12,15,52,0.00
2012,03,12,15,53,0.00
2012,03,12,15,54,0.00
2012,03,12,15,55,0.00
2012,03,12,15,56,0.00
2012,03,12,15,57,0.00
2012,03,12,15,58,0.00
2012,03,12,15,59,0.00
2012,03,12,16,00,0.00
2012,03,12,16,01,0.00
2012,03,12,16,02,1.30
2012,03,12,16,03,0.00
2012,03,12,16,04,0.00
2012,03,12,16,05,0.00
2012,03,12,16,06,0.00
2012,03,12,16,07,0.00
2012,03,12,16,08,0.20
2012,03,12,16,09,1.10
2012,03,12,16,10,0.10
2012,03,12,16,11,0.00
2012,03,12,16,12,0.00
2012,03,12,16,13,0.00
2012,03,12,16,14,0.00
2012,03,12,16,15,0.00
2012,03,12,16,16,0.00
2012,03,12,16,17,0.00
2012,03,12,16,18,0.00
2012,03,12,16,19,0.00
2012,03,12,16,20,0.00
2012,03,12,16,21,0.00
2012,03,12,16,22,0.00
2012,03,12,16,23,0.00
2012,03,12,16,24,0.00
2012,03,12,16,25,0.00
2012,03,12,16,26,0.00
2012,03,12,16,27,0.00
2012,03,12,16,28,0.00
2012,03,12,16,29,0.00
2012,03,12,16,30,0.00
2012,03,12,16,31,0.00
2012,03,12,16,32,0.00
2012,03,12,16,33,0.00
2012,03,12,16,34,0.00
2012,03,12,16,35,0.30
2012,03,12,16,36,0.20
2012,03,12,16,37,0.00
2012,03,12,16,38,0.00
2012,03,12,16,39,0.10
2012,03,12,16,40,1.40
2012,03,12,16,41,0.30
2012,03,12,16,42,0.00
2012,03,12,16,43,0.00
2012,03,12,16,44,0.00
2012,03,12,16,45,0.00
2012,03,12,16,46,0.00
2012,03,12,16,47,0.00
2012,03,12,16,48,0.00
2012,03,12,16,49,0.00
2012,03,12,16,50,0.00
2012,03,12,16,51,0.00
2012,03,12,16,52,0.00
2012,03,12,16,53,0.00
2012,03,12,16,54,0.00
2012,03,12,16,55,0.40
2012,03,12,16,56,0.00
2012,03,12,16,57,0.00
2012,03,12,16,58,0.00
2012,03,12,16,59,0.00
2012,03,12,17,00,0.00
2012,03,12,17,01,0.00
2012,03,12,17,02,0.00
2012,03,12,17,03,0.00
2012,03,12,17,04,0.00
2012,03,12,17,05,0.00
2012,03,12,17,06,0.00
2012,03,12,17,07,0.00
2012,03,12,17,08,0.00
2012,03,12,17,09,0.00
2012,03,12,17,10,0.50
2012,03,12,17,11,0.00
2012,03,12,17,12,1.50
2012,03,12,17,13,2.60
2012,03,12,17,14,3.00
2012,03,12,17,15,3.30
2012,03,12,17,16,3.00
2012,03,12,17,17,0.80
2012,03,12,17,18,2.20
2012,03,12,17,19,0.30
2012,03,12,17,20,1.00
2012,03,12,17,21,0.30
2012,03,12,17,22,0.00
2012,03,12,17,23,0.00
2012,03,12,17,24,0.00
2012,03,12,17,25,0.00
2012,03,12,17,26,0.60
2012,03,12,17,27,0.00
2012,03,12,17,28,0.00
2012,03,12,17,29,0.00
2012,03,12,17,30,0.00
2012,03,12,17,31,0.00
2012,03,12,17,32,0.00
2012,03,12,17,33,0.00
2012,03,12,17,34,0.00
2012,03,12,17,35,0.00
2012,03,12,17,36,0.00
2012,03,12,17,37,0.00
2012,03,12,17,38,0.10
2012,03,12,17,39,0.00
2012,03,12,17,40,0.00